This is the latest recevied weather packets stored in our database for station/object KE8GJZ-1. If no packets are shown the sender has not sent any weather packets the latest 10 day(s).
| Time | Temp. | Humidity | Pressure | Rain* | Wind** | Luminosity | Snow |
|---|---|---|---|---|---|---|---|
| 1778107130 | 11.67° C | 42% | 1010.5 hPa | 0 mm | - | 37 W/m² | - |
| 1778106825 | 11.67° C | 44% | 1010.6 hPa | 0 mm | - | 59 W/m² | - |
| 1778106523 | 11.67° C | 43% | 1010.5 hPa | 0 mm | - | 88 W/m² | - |
| 1778106218 | 11.67° C | 42% | 1010.4 hPa | 0 mm | - | 86 W/m² | - |
| 1778105916 | 11.67° C | 45% | 1010.6 hPa | 0 mm | - | 58 W/m² | - |
| 1778105613 | 12.22° C | 43% | 1010.2 hPa | 0 mm | - | 60 W/m² | - |
| 1778105311 | 12.22° C | 43% | 1010.5 hPa | 0 mm | - | 53 W/m² | - |
| 1778105006 | 12.22° C | 42% | 1010.8 hPa | 0 mm | - | 65 W/m² | - |
| 1778104703 | 12.22° C | 42% | 1010.5 hPa | 0 mm | - | 59 W/m² | - |
| 1778104399 | 12.22° C | 45% | 1010.8 hPa | 0 mm | - | 101 W/m² | - |
| 1778104095 | 12.22° C | 44% | 1010.6 hPa | 0 mm | - | 100 W/m² | - |
| 1778103792 | 12.78° C | 42% | 1010.4 hPa | 0 mm | - | 98 W/m² | - |
| 1778103490 | 12.78° C | 43% | 1010.5 hPa | 0 mm | - | 138 W/m² | - |
| 1778103187 | 12.78° C | 43% | 1010.5 hPa | 0 mm | - | 128 W/m² | - |
| 1778102884 | 12.78° C | 44% | 1010.4 hPa | 0 mm | - | 142 W/m² | - |
| 1778102580 | 12.78° C | 44% | 1010.5 hPa | 0 mm | - | 169 W/m² | - |
| 1778102275 | 12.78° C | 43% | 1010.5 hPa | 0 mm | - | 132 W/m² | - |
| 1778101972 | 12.78° C | 42% | 1010.5 hPa | 0 mm | - | 150 W/m² | - |
| 1778101669 | 12.78° C | 43% | 1010.7 hPa | 0 mm | - | 147 W/m² | - |
| 1778101365 | 12.78° C | 43% | 1010.4 hPa | 0 mm | - | 135 W/m² | - |
| 1778101063 | 12.22° C | 44% | 1010.4 hPa | 0 mm | - | 238 W/m² | - |
| 1778100758 | 12.22° C | 41% | 1010.6 hPa | 0 mm | - | 275 W/m² | - |
| 1778100455 | 12.78° C | 44% | 1010.5 hPa | 0 mm | - | 134 W/m² | - |
| 1778100153 | 12.78° C | 44% | 1010.5 hPa | 0 mm | - | 158 W/m² | - |
| 1778099851 | 13.33° C | 41% | 1010.7 hPa | 0 mm | - | 176 W/m² | - |
* Rain latest hour (hover to see other rain measurements)
** Current wind speed in m/s (hover to see current wind gust speed)